{"data":{"norad_id":64674,"epoch":"2026-05-25T03:19:53.817312Z","epoch_age_seconds":60082,"freshness":"FRESH","line1":"1 64674U 25139L   26145.13881733  .00041033  00000+0  12192-2 0  9996","line2":"2 64674  53.1583 130.8919 0001381 114.5635 245.5511 15.34394179 51907","mean_motion":15.34394179,"eccentricity":0.0001381,"inclination_deg":53.1583,"raan_deg":130.8919,"arg_perigee_deg":114.5635,"mean_anomaly_deg":245.5511,"bstar":0.0012192,"rev_number":5190,"period_min":93.848114109666,"perigee_km":461.77581907404,"apogee_km":463.665263927,"semimajor_km":6840.8575415005,"source":"CELESTRAK","updated_at":"2026-05-25T13:38:20.504131Z"}}